Skip Page Navigation
NASA JPL Caltech
NASA Logo - Jet Propulsion Laboratory + View the NASA Portal
+ Center for Near-Earth Object Studies
JPL Home Earth Solar System Stars & Galaxies Technology
JPL Solar System Dynamics
BODIES ORBITS EPHEMERIDES TOOLS PHYSICAL DATA DISCOVERY FAQ SITE MAP
JPL Small-Body Database Browser
Search: [ help ]  
101633 (1999 CA34)
Classification: Main-belt Asteroid          SPK-ID: 2101633
Ephemeris | Orbit Diagram | Orbital Elements | Mission Design | Physical Parameters | Discovery Circumstances | Close-Approach Data ]

[ show orbit diagram ]
Orbital Elements at Epoch 2459200.5 (2020-Dec-17.0) TDB
Reference: JPL 19 (heliocentric ecliptic J2000)
 Element Value Uncertainty (1-sigma)   Units 
e .09066584104271119 6.5534e-08  
a 2.716279828191456 1.7621e-08 au
q 2.470006033061126 1.8157e-07 au
i 1.592243933703479 5.8901e-06 deg
node 128.621209918759 0.00019287 deg
peri 30.19101430047546 0.00019448 deg
M 304.8998690566068 2.4823e-05 deg
tp 2459450.770879451599
(2021-Aug-24.27087945)
0.00011313 TDB
period 1635.159754795081
4.48
1.5912e-05
4.356e-08
d
yr
n .2201619743540688 2.1424e-09 deg/d
Q 2.962553623321786 1.9219e-08 au
  Orbit Determination Parameters
   # obs. used (total)      454  
   data-arc span      8065 days (22.08 yr)  
   first obs. used      1999-01-10  
   last obs. used      2021-02-08  
   planetary ephem.      DE441  
   SB-pert. ephem.      SB441-N16  
   condition code      0  
   norm. resid. RMS      .52488  
   source      ORB  
   producer      Otto Matic  
   solution date      2021-Apr-13 15:37:46  

Additional Information
 Earth MOID = 1.47881 au 
 Jupiter MOID = 2.01347 au 
 T_jup = 3.354 
[ show covariance matrix ]

Ephemeris | Orbit Diagram | Orbital Elements | Mission Design | Physical Parameters | Discovery Circumstances | Close-Approach Data ]

Physical Parameter Table
Parameter Symbol Value Units Sigma Reference Notes
absolute magnitude H 15.7   n/a MPO493571  

101633 (1999 CA34)          Discovered 1999-Feb-10 by LINEAR at Socorro
Reference: 20051019/Numbers.arcLast Updated: 2005-10-26

[ show close-approach data ]
Alternate Designations
 1999 CA34 = 2001 RR61 
Ephemeris | Orbit Diagram | Orbital Elements | Mission Design | Physical Parameters | Discovery Circumstances | Close-Approach Data ]
ABOUT SSD CREDITS/AWARDS PRIVACY/COPYRIGHT GLOSSARY LINKS
FirstGov 2021-Apr-20 05:39 UT
(server date/time)  
NASA Home Page
Site Manager:   Ryan S. Park
Webmaster  Alan B. Chamberlin